DECAYED

ELECTRON KICK STAGE R/B, 67224 (Decayed)

Orbit data source: Space-Track

ELECTRON KICK STAGE R/B, 67224 was space debris in LEO originally from a launch on Thu, 18 Dec 2025 UTC launched from the Wallops Island (WLPIS). Debris objects in space refer to the collection of defunct objects orbiting the Earth. Examples of debris include non-operational satellites, rocket bodies, and fragments generated from explosions, collisions, or faulty payload assembly.

Not visible in the next 10 days
Identifier
67224, 2025-305F
Orbit
Decayed
Country
Flag of USUS
Related business
Manufacturer
Rocket Lab
Mission
Decayed spacecraft
Bus & Motor
ELECTRON ST2, Unknown motor
Mass
250 kg wet, ~250 kg dry
Launch date (UTC)
2025-12-18 (4 months ago)
Launch vehicle
Unknown
Launch site
Wallops Island (WLPIS)
Object type
Payload
Rocket body
Debris
Shape & HBR
Cyl, 8.0 m
Radar Cross Section
2.827 m²

Expand to show TLE details & history
Last TLE update: 3 months ago

TLE from 3 months ago
0 ELECTRON KICK STAGE R/B
1 67224U 25305F   26006.95949992  .16622258  10931-4  21249-3 0  9997
2 67224  44.9837 203.5690 0020541  49.5317 310.7398 16.47594125  3147
Epoch: 2026-01-06T23:01Z
TLE epoch observation values (Epoch: 2026-01-06T23:01:40.793Z)
Latitude
-0.00002°
Longitude
111.61419°
Altitude
136.947 km
Speed
7.831 km/s
True Right ascension
13h 34m 16s
True Declination
0° 00' 00"
Sunlit
Object was in daylight at epoch
Visualization orbit readout
Latitude
Unknown
Longitude
Unknown
Altitude
Unknown
Speed
Unknown
Apparent Right ascension
Unknown
Apparent Declination
Unknown
Sunlit
N/A
Visualization observer readout
Local Sidereal Time
19:30:23
Azimuth
Unknown
Elevation
Unknown
Doppler factor
Unknown
Orbital elements
Apogee altitude
160.778 km
Perigee altitude
133.97 km
Semi-major axis
6,525.511 km
Eccentricity
0.00205
Inclination
44.9837°
RAAN
203.569°
Arg. of periapsis
49.5317°
True anomaly
310.56116°
Mean anomaly
310.7398°
Eccentric anomaly
310.65051°
Mean motion
4.11738 °/min
Orbital period
87.43 mins
BSTAR
0.00021249
Loading maneuver chart data...
Computing Atmospheric mass density...
Loading historical data...
Loading historical data...
Loading historical data...
Loading historical data...
Loading historical data...
Loading historical data...
Loading historical data...
Other satellites on launch #305 in the year 2025 (2025-12-18 UTC)

Documentation

Showing up to 5 results
|